| time (UTC) | temp F | wind direction | speed MPH | gust MPH | rain 1hr in | rain 24hr in | rain mn in | humidity % | barometer mb |
| 20260505100013 | 70 | 315 | 3.0 | 9.0 | 0.00 | 0.00 | 0.00 | 38 | 1018.6 |
| 20260505095509 | 70 | 355 | 2.0 | 6.0 | 0.00 | 0.00 | 0.00 | 40 | 1018.7 |
| 20260505095010 | 70 | 9 | 2.0 | 6.0 | 0.00 | 0.00 | 0.00 | 41 | 1018.7 |
| 20260505094509 | 70 | 342 | 1.0 | 5.0 | 0.00 | 0.00 | 0.00 | 40 | 1018.8 |
| 20260505094009 | 70 | 246 | 1.0 | 8.0 | 0.00 | 0.00 | 0.00 | 41 | 1018.8 |
| 20260505093512 | 70 | 5 | 3.0 | 11.0 | 0.00 | 0.00 | 0.00 | 39 | 1018.9 |
| 20260505093010 | 70 | 340 | 5.0 | 11.0 | 0.00 | 0.00 | 0.00 | 36 | 1018.8 |
| 20260505092508 | 71 | 350 | 4.0 | 10.0 | 0.00 | 0.00 | 0.00 | 39 | 1018.8 |
| 20260505092007 | 70 | 31 | 1.0 | 10.0 | 0.00 | 0.00 | 0.00 | 40 | 1018.9 |
| 20260505091507 | 71 | 348 | 2.0 | 5.0 | 0.00 | 0.00 | 0.00 | 38 | 1018.9 |
| 20260505091006 | 71 | 57 | 1.0 | 5.0 | 0.00 | 0.00 | 0.00 | 38 | 1018.9 |
| 20260505090508 | 71 | 344 | 1.0 | 5.0 | 0.00 | 0.00 | 0.00 | 39 | 1018.9 |
| 20260505090006 | 71 | 84 | 1.0 | 5.0 | 0.00 | 0.00 | 0.00 | 38 | 1018.8 |
| 20260505085505 | 71 | 152 | 0.0 | 5.0 | 0.00 | 0.00 | 0.00 | 39 | 1018.9 |
| 20260505085007 | 71 | 196 | 1.0 | 5.0 | 0.00 | 0.00 | 0.00 | 42 | 1019.0 |
| 20260505084505 | 70 | 143 | 1.0 | 8.0 | 0.00 | 0.00 | 0.00 | 41 | 1018.9 |
| 20260505084003 | 70 | 173 | 1.0 | 8.0 | 0.00 | 0.00 | 0.00 | 42 | 1019.0 |
| 20260505083503 | 70 | 116 | 1.0 | 5.0 | 0.00 | 0.00 | 0.00 | 40 | 1019.0 |
| 20260505083005 | 70 | 232 | 1.0 | 7.0 | 0.00 | 0.00 | 0.00 | 41 | 1019.0 |
| 20260505082502 | 70 | 89 | 1.0 | 7.0 | 0.00 | 0.00 | 0.00 | 43 | 1019.0 |
| 20260505082001 | 70 | 333 | 0.0 | 6.0 | 0.00 | 0.00 | 0.00 | 42 | 1019.0 |
| 20260505081600 | 70 | 174 | 2.0 | 6.0 | 0.00 | 0.00 | 0.00 | 42 | 1019.0 |
| 20260505081057 | 69 | 171 | 1.0 | 8.0 | 0.00 | 0.00 | 0.00 | 45 | 1019.0 |
| 20260505080559 | 69 | 346 | 2.0 | 8.0 | 0.00 | 0.00 | 0.00 | 43 | 1018.9 |
| 20260505080057 | 69 | 28 | 2.0 | 8.0 | 0.00 | 0.00 | 0.00 | 44 | 1018.9 |
| 20260505075556 | 69 | 60 | 0.0 | 5.0 | 0.00 | 0.00 | 0.00 | 41 | 1018.9 |
| 20260505075054 | 69 | 57 | 2.0 | 5.0 | 0.00 | 0.00 | 0.00 | 42 | 1019.0 |
| 20260505074553 | 69 | 301 | 1.0 | 5.0 | 0.00 | 0.00 | 0.00 | 43 | 1019.1 |
| 20260505074051 | 69 | 330 | 2.0 | 6.0 | 0.00 | 0.00 | 0.00 | 45 | 1019.1 |
| 20260505073551 | 69 | 216 | 1.0 | 4.0 | 0.00 | 0.00 | 0.00 | 45 | 1019.1 |
| 20260505073050 | 68 | 240 | 1.0 | 4.0 | 0.00 | 0.00 | 0.00 | 45 | 1019.0 |
| 20260505072547 | 68 | 61 | 0.0 | 4.0 | 0.00 | 0.00 | 0.00 | 42 | 1019.0 |
| 20260505072047 | 67 | 61 | 2.0 | 4.0 | 0.00 | 0.00 | 0.00 | 45 | 1019.1 |
| 20260505071545 | 67 | 70 | 1.0 | 4.0 | 0.00 | 0.00 | 0.00 | 45 | 1019.0 |
| 20260505071045 | 67 | 332 | 1.0 | 4.0 | 0.00 | 0.00 | 0.00 | 48 | 1019.1 |
| 20260505070546 | 66 | 329 | 0.0 | 2.0 | 0.00 | 0.00 | 0.00 | 51 | 1019.1 |
| 20260505070048 | 65 | 303 | 0.0 | 4.0 | 0.00 | 0.00 | 0.00 | 54 | 1019.1 |
| 20260505065540 | 64 | 261 | 1.0 | 4.0 | 0.00 | 0.00 | 0.00 | 54 | 1019.1 |
| 20260505065038 | 64 | 234 | 1.0 | 4.0 | 0.00 | 0.00 | 0.00 | 55 | 1019.1 |
| 20260505064552 | 64 | 261 | 1.0 | 4.0 | 0.00 | 0.00 | 0.00 | 55 | 1019.0 |
| 20260505064035 | 63 | 194 | 0.0 | 7.0 | 0.00 | 0.00 | 0.00 | 57 | 1019.1 |
| 20260505063534 | 63 | 241 | 2.0 | 7.0 | 0.00 | 0.00 | 0.00 | 57 | 1019.0 |
| 20260505063033 | 63 | 230 | 2.0 | 4.0 | 0.00 | 0.00 | 0.00 | 57 | 1019.0 |
| 20260505062532 | 62 | 209 | 0.0 | 6.0 | 0.00 | 0.00 | 0.00 | 58 | 1019.0 |
| 20260505062030 | 62 | 262 | 2.0 | 6.0 | 0.00 | 0.00 | 0.00 | 57 | 1019.0 |
| 20260505061537 | 62 | 218 | 1.0 | 5.0 | 0.00 | 0.00 | 0.00 | 58 | 1019.0 |
| 20260505061026 | 61 | 259 | 0.0 | 3.0 | 0.00 | 0.00 | 0.00 | 57 | 1018.9 |
| 20260505060526 | 61 | 250 | 0.0 | 3.0 | 0.00 | 0.00 | 0.00 | 58 | 1018.9 |
| 20260505060030 | 61 | 242 | 0.0 | 4.0 | 0.00 | 0.00 | 0.00 | 59 | 1018.9 |
| 20260505055523 | 60 | 248 | 1.0 | 6.0 | 0.00 | 0.00 | 0.00 | 60 | 1018.8 |
| 20260505055022 | 59 | 255 | 2.0 | 6.0 | 0.00 | 0.00 | 0.00 | 61 | 1018.9 |
| 20260505054524 | 58 | 271 | 1.0 | 7.0 | 0.00 | 0.00 | 0.00 | 62 | 1018.9 |
| 20260505054022 | 58 | 234 | 3.0 | 7.0 | 0.00 | 0.00 | 0.00 | 62 | 1018.9 |
| 20260505053520 | 58 | 238 | 1.0 | 6.0 | 0.00 | 0.00 | 0.00 | 63 | 1018.8 |
| 20260505053021 | 58 | 221 | 2.0 | 6.0 | 0.00 | 0.00 | 0.00 | 64 | 1018.9 |
| 20260505052518 | 58 | 250 | 1.0 | 4.0 | 0.00 | 0.00 | 0.00 | 64 | 1018.9 |
| 20260505052017 | 58 | 195 | 0.0 | 1.0 | 0.00 | 0.00 | 0.00 | 66 | 1018.8 |
| 20260505051516 | 57 | 196 | 0.0 | 1.0 | 0.00 | 0.00 | 0.00 | 67 | 1018.8 |
| 20260505051014 | 57 | 196 | 0.0 | 1.0 | 0.00 | 0.00 | 0.00 | 68 | 1018.8 |
| 20260505050516 | 56 | 196 | 0.0 | 0.0 | 0.00 | 0.00 | 0.00 | 68 | 1018.8 |
| 20260505041613 | 51 | 200 | 0.0 | 3.0 | 0.00 | 0.00 | 0.00 | 76 | 1018.7 |
| 20260505041057 | 50 | 199 | 0.0 | 3.0 | 0.00 | 0.00 | 0.00 | 75 | 1018.6 |
| 20260505040555 | 50 | 345 | 0.0 | 2.0 | 0.00 | 0.00 | 0.00 | 77 | 1018.6 |
| 20260505040054 | 50 | 345 | 0.0 | 1.0 | 0.00 | 0.00 | 0.00 | 77 | 1018.5 |
| 20260505035554 | 49 | 345 | 0.0 | 2.0 | 0.00 | 0.00 | 0.00 | 78 | 1018.5 |
| 20260505035054 | 49 | 344 | 0.0 | 3.0 | 0.00 | 0.00 | 0.00 | 77 | 1018.6 |
| 20260505034549 | 49 | 236 | 0.0 | 3.0 | 0.00 | 0.00 | 0.00 | 77 | 1018.5 |
| 20260505034052 | 49 | 236 | 0.0 | 2.0 | 0.00 | 0.00 | 0.00 | 79 | 1018.6 |
| 20260505033548 | 48 | 236 | 0.0 | 1.0 | 0.00 | 0.00 | 0.00 | 80 | 1018.6 |
| 20260505033048 | 48 | 236 | 0.0 | 1.0 | 0.00 | 0.00 | 0.00 | 81 | 1018.6 |
| 20260505032550 | 48 | 236 | 0.0 | 1.0 | 0.00 | 0.00 | 0.00 | 81 | 1018.6 |
| 20260505032047 | 48 | 236 | 0.0 | 0.0 | 0.00 | 0.00 | 0.00 | 81 | 1018.5 |
| 20260505031553 | 48 | 235 | 0.0 | 2.0 | 0.00 | 0.00 | 0.00 | 81 | 1018.5 |
| 20260505031050 | 49 | 235 | 0.0 | 2.0 | 0.00 | 0.00 | 0.00 | 81 | 1018.5 |
| 20260505030548 | 48 | 237 | 0.0 | 2.0 | 0.00 | 0.00 | 0.00 | 82 | 1018.4 |
| 20260505030047 | 48 | 238 | 0.0 | 2.0 | 0.00 | 0.00 | 0.00 | 81 | 1018.5 |
| 20260505025547 | 48 | 238 | 0.0 | 3.0 | 0.00 | 0.00 | 0.00 | 82 | 1018.5 |
| 20260505025049 | 48 | 276 | 0.0 | 3.0 | 0.00 | 0.00 | 0.00 | 82 | 1018.6 |
| 20260505024548 | 48 | 210 | 0.0 | 2.0 | 0.00 | 0.00 | 0.00 | 82 | 1018.6 |
| 20260505024045 | 48 | 208 | 0.0 | 4.0 | 0.00 | 0.00 | 0.00 | 81 | 1018.6 |
| 20260505023545 | 48 | 208 | 0.0 | 4.0 | 0.00 | 0.00 | 0.00 | 82 | 1018.6 |
| 20260505023048 | 48 | 215 | 0.0 | 2.0 | 0.00 | 0.00 | 0.00 | 82 | 1018.6 |
| 20260505022545 | 48 | 217 | 0.0 | 3.0 | 0.00 | 0.00 | 0.00 | 82 | 1018.6 |
| 20260505022044 | 48 | 202 | 0.0 | 4.0 | 0.00 | 0.00 | 0.00 | 82 | 1018.6 |
| 20260505021546 | 48 | 94 | 0.0 | 1.0 | 0.00 | 0.00 | 0.00 | 82 | 1018.6 |
| 20260505021044 | 48 | 94 | 0.0 | 1.0 | 0.00 | 0.00 | 0.00 | 82 | 1018.6 |
| 20260505020545 | 48 | 93 | 0.0 | 1.0 | 0.00 | 0.00 | 0.00 | 82 | 1018.6 |
| 20260505020043 | 48 | 93 | 0.0 | 1.0 | 0.00 | 0.00 | 0.00 | 82 | 1018.6 |
| 20260505015546 | 48 | 92 | 0.0 | 2.0 | 0.00 | 0.00 | 0.00 | 82 | 1018.6 |
| 20260505015042 | 48 | 93 | 0.0 | 2.0 | 0.00 | 0.00 | 0.00 | 81 | 1018.7 |
| 20260505014544 | 48 | 93 | 0.0 | 2.0 | 0.00 | 0.00 | 0.00 | 81 | 1018.7 |
| 20260505014042 | 48 | 92 | 0.0 | 2.0 | 0.00 | 0.00 | 0.00 | 81 | 1018.8 |
| 20260505013541 | 48 | 93 | 0.0 | 2.0 | 0.00 | 0.00 | 0.00 | 82 | 1018.8 |
| 20260505013041 | 48 | 94 | 0.0 | 1.0 | 0.00 | 0.00 | 0.00 | 82 | 1018.8 |
| 20260505012541 | 48 | 93 | 0.0 | 2.0 | 0.00 | 0.00 | 0.00 | 82 | 1018.8 |
| 20260505012041 | 48 | 93 | 0.0 | 2.0 | 0.00 | 0.00 | 0.00 | 83 | 1018.7 |
| 20260505011541 | 48 | 84 | 0.0 | 1.0 | 0.00 | 0.00 | 0.00 | 83 | 1018.7 |
| 20260505011042 | 48 | 84 | 0.0 | 1.0 | 0.00 | 0.00 | 0.00 | 82 | 1018.7 |
| 20260505010541 | 48 | 84 | 0.0 | 1.0 | 0.00 | 0.00 | 0.00 | 82 | 1018.8 |
| 20260505010043 | 48 | 84 | 0.0 | 1.0 | 0.00 | 0.00 | 0.00 | 82 | 1018.7 |
| 20260505005539 | 48 | 84 | 0.0 | 1.0 | 0.00 | 0.00 | 0.00 | 83 | 1018.8 |
| 20260505005039 | 48 | 84 | 0.0 | 0.0 | 0.00 | 0.00 | 0.00 | 83 | 1018.9 |
| 20260505004538 | 47 | 84 | 0.0 | 1.0 | 0.00 | 0.00 | 0.00 | 83 | 1018.9 |
| 20260505004037 | 48 | 84 | 0.0 | 0.0 | 0.00 | 0.00 | 0.00 | 83 | 1019.0 |
| 20260505003538 | 48 | 84 | 0.0 | 1.0 | 0.00 | 0.00 | 0.00 | 83 | 1018.9 |
| 20260505003038 | 48 | 84 | 0.0 | 2.0 | 0.00 | 0.00 | 0.00 | 84 | 1019.0 |
| 20260505002539 | 48 | 84 | 0.0 | 2.0 | 0.00 | 0.00 | 0.00 | 84 | 1019.0 |
| 20260505002037 | 47 | 84 | 0.0 | 1.0 | 0.00 | 0.00 | 0.00 | 84 | 1019.0 |
| 20260505001547 | 48 | 84 | 0.0 | 1.0 | 0.00 | 0.00 | 0.00 | 84 | 1019.0 |
| 20260505001035 | 48 | 84 | 0.0 | 2.0 | 0.00 | 0.00 | 0.00 | 84 | 1019.1 |
| 20260505000535 | 48 | 84 | 0.0 | 2.0 | 0.00 | 0.00 | 0.00 | 85 | 1019.1 |
| 20260505000041 | 47 | 83 | 0.0 | 1.0 | 0.00 | 0.00 | 0.00 | 84 | 1019.1 |
| 20260504235535 | 48 | 84 | 0.0 | 0.0 | 0.00 | 0.00 | 0.00 | 84 | 1019.2 |
| 20260504235036 | 48 | 83 | 0.0 | 0.0 | 0.00 | 0.00 | 0.00 | 84 | 1019.2 |
| 20260504234534 | 48 | 83 | 0.0 | 0.0 | 0.00 | 0.00 | 0.00 | 84 | 1019.2 |
| 20260504234033 | 47 | 83 | 0.0 | 0.0 | 0.00 | 0.00 | 0.00 | 84 | 1019.2 |
| 20260504233533 | 47 | 84 | 0.0 | 0.0 | 0.00 | 0.00 | 0.00 | 84 | 1019.3 |
| 20260504233035 | 47 | 84 | 0.0 | 0.0 | 0.00 | 0.00 | 0.00 | 83 | 1019.2 |
| 20260504232533 | 48 | 84 | 0.0 | 0.0 | 0.00 | 0.00 | 0.00 | 83 | 1019.3 |
| 20260504232032 | 48 | 83 | 0.0 | 1.0 | 0.00 | 0.00 | 0.00 | 83 | 1019.4 |
| 20260504231543 | 47 | 83 | 0.0 | 1.0 | 0.00 | 0.00 | 0.00 | 84 | 1019.4 |
| 20260504231032 | 47 | 84 | 0.0 | 1.0 | 0.00 | 0.00 | 0.00 | 83 | 1019.5 |
| 20260504230530 | 47 | 83 | 0.0 | 1.0 | 0.00 | 0.00 | 0.00 | 82 | 1019.6 |
| 20260504230030 | 47 | 84 | 0.0 | 1.0 | 0.00 | 0.00 | 0.00 | 82 | 1019.6 |
| 20260504225531 | 48 | 83 | 0.0 | 0.0 | 0.00 | 0.00 | 0.00 | 82 | 1019.6 |
| 20260504225029 | 48 | 83 | 0.0 | 0.0 | 0.00 | 0.00 | 0.00 | 82 | 1019.6 |
| 20260504224528 | 48 | 84 | 0.0 | 0.0 | 0.00 | 0.00 | 0.00 | 81 | 1019.7 |
| 20260504224030 | 48 | 84 | 0.0 | 0.0 | 0.00 | 0.00 | 0.00 | 81 | 1019.7 |
| 20260504223529 | 48 | 83 | 0.0 | 1.0 | 0.00 | 0.00 | 0.00 | 81 | 1019.7 |
| 20260504223026 | 48 | 84 | 0.0 | 2.0 | 0.00 | 0.00 | 0.00 | 80 | 1019.8 |
| 20260504222525 | 48 | 84 | 0.0 | 2.0 | 0.00 | 0.00 | 0.00 | 80 | 1019.8 |
| 20260504222024 | 48 | 83 | 0.0 | 1.0 | 0.00 | 0.00 | 0.00 | 80 | 1019.8 |
| 20260504221524 | 48 | 83 | 0.0 | 1.0 | 0.00 | 0.00 | 0.00 | 79 | 1019.8 |
| 20260504221024 | 48 | 83 | 0.0 | 1.0 | 0.00 | 0.00 | 0.00 | 79 | 1019.8 |
| 20260504220523 | 48 | 84 | 0.0 | 1.0 | 0.00 | 0.00 | 0.00 | 79 | 1019.9 |
| 20260504220023 | 48 | 84 | 0.0 | 1.0 | 0.00 | 0.00 | 0.00 | 78 | 1019.9 |
| 20260504215522 | 48 | 84 | 0.0 | 3.0 | 0.00 | 0.00 | 0.00 | 78 | 1019.9 |
| 20260504215026 | 48 | 123 | 0.0 | 1.0 | 0.00 | 0.00 | 0.00 | 77 | 1019.9 |
| 20260504214520 | 49 | 123 | 0.0 | 1.0 | 0.00 | 0.00 | 0.00 | 77 | 1020.0 |
| 20260504214023 | 49 | 123 | 0.0 | 2.0 | 0.00 | 0.00 | 0.00 | 76 | 1019.9 |
| 20260504213521 | 49 | 123 | 0.0 | 2.0 | 0.00 | 0.00 | 0.00 | 75 | 1019.9 |
| 20260504213020 | 49 | 123 | 0.0 | 1.0 | 0.00 | 0.00 | 0.00 | 75 | 1019.9 |
| 20260504212518 | 49 | 123 | 0.0 | 1.0 | 0.00 | 0.00 | 0.00 | 74 | 1020.0 |
| 20260504212017 | 49 | 124 | 0.0 | 1.0 | 0.00 | 0.00 | 0.00 | 74 | 1020.0 |
| 20260504211517 | 49 | 123 | 0.0 | 1.0 | 0.00 | 0.00 | 0.00 | 72 | 1020.1 |
| 20260504211016 | 49 | 123 | 0.0 | 0.0 | 0.00 | 0.00 | 0.00 | 71 | 1020.1 |
| 20260504210515 | 49 | 123 | 0.0 | 1.0 | 0.00 | 0.00 | 0.00 | 70 | 1020.2 |
| 20260504210015 | 49 | 123 | 0.0 | 1.0 | 0.00 | 0.00 | 0.00 | 69 | 1020.2 |
| 20260504205515 | 49 | 123 | 0.0 | 1.0 | 0.00 | 0.00 | 0.00 | 67 | 1020.1 |
| 20260504205014 | 49 | 123 | 0.0 | 0.0 | 0.00 | 0.00 | 0.00 | 65 | 1020.2 |
| 20260504204516 | 49 | 123 | 0.0 | 1.0 | 0.00 | 0.00 | 0.00 | 64 | 1020.2 |
| 20260504204014 | 49 | 123 | 0.0 | 1.0 | 0.00 | 0.00 | 0.00 | 63 | 1020.2 |
| 20260504203514 | 50 | 123 | 0.0 | 1.0 | 0.00 | 0.00 | 0.00 | 62 | 1020.3 |
| 20260504203021 | 50 | 127 | 0.0 | 1.0 | 0.00 | 0.00 | 0.00 | 60 | 1020.3 |
| 20260504202514 | 50 | 204 | 0.0 | 0.0 | 0.00 | 0.00 | 0.00 | 60 | 1020.3 |
| 20260504202013 | 50 | 360 | 0.0 | 0.0 | 0.00 | 0.00 | 0.00 | 58 | 1020.3 |
| 20260504201513 | 50 | 205 | 0.0 | 0.0 | 0.00 | 0.00 | 0.00 | 57 | 1020.3 |
| 20260504201013 | 50 | 204 | 0.0 | 1.0 | 0.00 | 0.00 | 0.00 | 57 | 1020.3 |
| 20260504200514 | 51 | 204 | 0.0 | 2.0 | 0.00 | 0.00 | 0.00 | 55 | 1020.5 |
| 20260504200014 | 51 | 205 | 0.0 | 2.0 | 0.00 | 0.00 | 0.00 | 54 | 1020.4 |
| 20260504195513 | 51 | 206 | 0.0 | 1.0 | 0.00 | 0.00 | 0.00 | 53 | 1020.4 |
| 20260504195014 | 51 | 205 | 0.0 | 1.0 | 0.00 | 0.00 | 0.00 | 53 | 1020.4 |
| 20260504194525 | 51 | 360 | 0.0 | 2.0 | 0.00 | 0.00 | 0.00 | 54 | 1020.4 |
| 20260504194012 | 52 | 360 | 0.0 | 4.0 | 0.00 | 0.00 | 0.00 | 54 | 1020.4 |
| 20260504193512 | 52 | 360 | 1.0 | 4.0 | 0.00 | 0.00 | 0.00 | 52 | 1020.5 |
| 20260504193016 | 53 | 324 | 0.0 | 0.0 | 0.00 | 0.00 | 0.00 | 49 | 1020.4 |
| 20260504192511 | 53 | 323 | 0.0 | 0.0 | 0.00 | 0.00 | 0.00 | 48 | 1020.4 |
| 20260504192011 | 53 | 324 | 0.0 | 1.0 | 0.00 | 0.00 | 0.00 | 49 | 1020.4 |
| 20260504191513 | 53 | 325 | 0.0 | 1.0 | 0.00 | 0.00 | 0.00 | 49 | 1020.3 |
| 20260504191013 | 53 | 325 | 0.0 | 1.0 | 0.00 | 0.00 | 0.00 | 50 | 1020.4 |
| 20260504190512 | 53 | 360 | 0.0 | 1.0 | 0.00 | 0.00 | 0.00 | 49 | 1020.3 |
| 20260504190011 | 53 | 360 | 0.0 | 1.0 | 0.00 | 0.00 | 0.00 | 49 | 1020.3 |
| 20260504185513 | 53 | 325 | 0.0 | 1.0 | 0.00 | 0.00 | 0.00 | 49 | 1020.3 |
| 20260504185011 | 53 | 319 | 0.0 | 0.0 | 0.00 | 0.00 | 0.00 | 49 | 1020.2 |
| 20260504184512 | 54 | 320 | 0.0 | 1.0 | 0.00 | 0.00 | 0.00 | 49 | 1020.1 |
| 20260504184011 | 54 | 319 | 0.0 | 2.0 | 0.00 | 0.00 | 0.00 | 46 | 1020.0 |
| 20260504183511 | 54 | 320 | 0.0 | 2.0 | 0.00 | 0.00 | 0.00 | 47 | 1020.1 |
| 20260504183010 | 54 | 319 | 0.0 | 0.0 | 0.00 | 0.00 | 0.00 | 47 | 1020.1 |
| 20260504182510 | 54 | 360 | 0.0 | 2.0 | 0.00 | 0.00 | 0.00 | 46 | 1020.0 |
| 20260504182010 | 54 | 360 | 0.0 | 2.0 | 0.00 | 0.00 | 0.00 | 46 | 1019.9 |
| 20260504181510 | 54 | 360 | 0.0 | 2.0 | 0.00 | 0.00 | 0.00 | 47 | 1019.9 |
| 20260504181015 | 54 | 360 | 0.0 | 3.0 | 0.00 | 0.00 | 0.00 | 46 | 1019.8 |
| 20260504180510 | 55 | 360 | 0.0 | 4.0 | 0.00 | 0.00 | 0.00 | 46 | 1019.8 |
| 20260504180014 | 55 | 360 | 1.0 | 4.0 | 0.00 | 0.00 | 0.00 | 45 | 1019.8 |
| 20260504175509 | 55 | 360 | 0.0 | 3.0 | 0.00 | 0.00 | 0.00 | 45 | 1019.8 |
| 20260504175009 | 55 | 317 | 0.0 | 3.0 | 0.00 | 0.00 | 0.00 | 45 | 1019.8 |
| 20260504174509 | 55 | 360 | 0.0 | 3.0 | 0.00 | 0.00 | 0.00 | 45 | 1019.9 |
| 20260504174009 | 55 | 287 | 0.0 | 2.0 | 0.00 | 0.00 | 0.00 | 45 | 1019.9 |
| 20260504173508 | 56 | 288 | 0.0 | 2.0 | 0.00 | 0.00 | 0.00 | 44 | 1019.8 |
| 20260504173014 | 56 | 288 | 0.0 | 3.0 | 0.00 | 0.00 | 0.00 | 43 | 1019.9 |
| 20260504172508 | 56 | 317 | 0.0 | 7.0 | 0.00 | 0.00 | 0.00 | 44 | 1019.9 |
| 20260504172008 | 56 | 317 | 2.0 | 7.0 | 0.00 | 0.00 | 0.00 | 43 | 1019.9 |
| 20260504171507 | 56 | 297 | 1.0 | 4.0 | 0.00 | 0.00 | 0.00 | 44 | 1019.8 |
| 20260504171012 | 57 | 309 | 1.0 | 4.0 | 0.00 | 0.00 | 0.00 | 43 | 1019.8 |
| 20260504170506 | 57 | 325 | 1.0 | 7.0 | 0.00 | 0.00 | 0.00 | 43 | 1019.8 |
| 20260504151002 | 60 | 244 | 7.0 | 16.0 | 0.00 | 0.00 | 0.00 | 37 | 1019.9 |
| 20260504150502 | 61 | 351 | 4.0 | 13.0 | 0.00 | 0.00 | 0.00 | 37 | 1019.9 |
| 20260504141058 | 61 | 324 | 3.0 | 13.0 | 0.00 | 0.00 | 0.00 | 28 | 1020.2 |
| 20260504140558 | 61 | 332 | 5.0 | 13.0 | 0.00 | 0.00 | 0.00 | 30 | 1020.3 |
| 20260504140115 | 61 | 340 | 2.0 | 9.0 | 0.00 | 0.00 | 0.00 | 32 | 1020.2 |
| 20260504130554 | 61 | 355 | 4.0 | 18.0 | 0.00 | 0.00 | 0.00 | 37 | 1020.4 |
| 20260504120110 | 60 | 46 | 3.0 | 14.0 | 0.00 | 0.00 | 0.00 | 44 | 1020.7 |
| 20260504110546 | 61 | 19 | 4.0 | 14.0 | 0.00 | 0.00 | 0.00 | 39 | 1021.3 |
| 20260504100544 | 59 | 298 | 6.0 | 16.0 | 0.00 | 0.00 | 0.00 | 44 | 1021.7 |